SCP
0 0 0 0 0 0 0 0 0 0 0 0 0 0 0 0 0 0 0 0 0 0 0 0 0 0 0 0 0 0 0 0 0 0 0 0 0 0 0 0 0 0 0 0 0 0 0 0 0
0 0 0 0 0 0 0 0 0 0 0 0 0 0 0 0 0 0 0 0 0 0 0 0 0 0 0 0 0 0 0 0 0 0 0 0 0 0 0 0 0 0 0 0 0 0 0 0 0
0 0 0 0 0 0 0 0 0 0 0 0 0 0 0 0 0 0 0 0 0 0 0 0 0 0 0 0 0 0 0 0 0 0 0 0 0 0 0 0 0 0 0 0 0 0 0 0 0
0 0 0 0 0 0 0 0 0 0 0 0 0 0 0 0 0 0 0 0 0 0 0 0 0 0 0 0 0 0 0 0 0 0 0 0 0 0 0 0 0 0 0 0 0 0 0 0 0
0 0 0 0 0 0 0 0 0 0 0 0 0 0 0 0 0 0 0 0 0 0 0 0 0 0 0 0 0 0 0 0 0 0 0 0 0 0 0 0 0 0 0 0 0 0 1 0 0
0 0 0 0 0 0 0 0 0 0 0 0 0 0 0 0 0 0 0 0 0 0 0 0 0 0 0 0 0 0 0 0 0 0 0 0 0 0 0 0 0 0 0 0 0 0 1 1 0
0 0 0 0 0 0 0 0 0 0 0 0 0 0 0 0 0 0 0 0 0 0 0 0 0 0 0 0 0 0 0 0 0 0 0 0 0 0 0 0 0 0 0 0 0 0 1 0 0
0 0 0 0 0 0 0 0 0 0 0 0 0 0 0 0 0 0 0 0 0 0 0 0 0 0 0 0 0 0 0 0 0 0 0 0 0 0 0 0 0 0 0 0 0 0 0 0 0
0 0 0 0 0 0 0 0 0 0 0 0 0 0 0 0 0 0 0 0 0 0 0 0 0 0 0 0 0 0 0 0 0 0 0 0 0 0 0 0 0 0 0 0 0 0 0 0 0
0 0 0 0 0 0 0 0 0 0 0 0 0 0 0 0 0 0 0 0 0 0 0 0 0 0 0 0 0 0 0 0 0 0 0 0 0 0 0 0 0 0 0 0 0 0 0 0 0
0 0 0 0 0 0 0 0 0 0 0 0 0 0 0 0 0 0 0 0 0 0 0 0 0 0 0 0 0 0 0 0 0 0 0 0 0 0 0 0 0 0 0 0 0 0 0 0 0
0 0 0 0 0 0 0 0 0 0 0 0 0 0 0 0 0 0 0 0 0 0 0 0 0 0 0 0 0 0 0 0 0 0 0 0 0 0 0 0 0 0 0 0 0 0 0 0 0
0 0 0 0 0 0 0 0 0 0 0 0 0 0 0 0 0 0 0 0 0 0 0 0 0 0 0 0 0 0 0 0 0 0 0 0 0 0 0 0 0 0 0 0 0 0 0 0 0
0 0 0 0 0 0 0 0 0 0 0 0 0 0 0 0 0 0 0 0 0 0 0 0 0 0 0 0 0 0 0 0 0 0 0 0 0 0 0 0 0 0 0 0 0 0 0 0 0
0 0 0 0 0 0 0 0 0 0 0 0 0 0 0 0 0 0 0 0 0 0 0 0 0 0 0 0 0 0 0 0 0 0 0 0 0 0 0 0 0 0 0 0 0 0 0 0 0
0 0 0 0 0 0 0 0 0 0 0 0 0 0 0 0 0 0 0 0 0 0 0 0 0 0 0 0 0 0 0 0 0 0 0 0 0 0 0 0 0 0 0 0 0 0 0 0 0
0 0 0 0 0 0 0 0 0 0 0 0 0 0 0 0 0 0 0 0 0 0 0 0 0 0 0 0 0 0 0 0 0 0 0 0 0 0 0 0 0 0 0 0 0 0 0 0 0
0 0 0 0 0 0 0 0 0 0 0 0 0 0 0 0 0 0 0 0 0 0 0 0 0 0 0 0 0 0 0 0 0 0 0 0 0 0 0 0 0 0 0 0 0 0 0 0 0
0 0 0 0 0 0 0 0 0 0 0 0 0 0 0 0 0 0 0 0 0 0 0 0 0 0 0 0 0 0 0 0 0 0 0 0 0 0 0 0 0 0 0 0 0 0 0 0 0
0 0 0 0 0 0 0 0 0 0 0 0 0 0 0 0 0 0 0 0 0 0 0 0 0 0 0 0 0 0 0 0 0 0 0 0 0 0 0 0 0 0 0 0 0 0 0 0 0
0 0 0 0 0 0 0 0 0 0 0 0 0 0 0 0 0 0 0 0 0 0 0 0 0 0 0 0 0 0 0 0 0 0 0 0 0 0 0 0 0 0 0 0 0 0 0 0 0
0 0 0 0 0 0 0 0 0 0 0 0 0 0 0 0 0 0 0 0 0 0 0 0 0 0 0 0 0 0 0 0 0 0 0 0 0 0 0 0 0 0 0 0 0 0 0 0 0
0 0 0 -0 0 0 0 0 0 0 0 0 0 0 0 0 0 0 0 0 0 0 0 0 0 0 0 0 0 0 0 0 0 0 0 0 0 0 0 -0 0 0 0 0 0 0 0 0 0
0 0 0 -0 0 0 0 0 0 0 0 0 0 0 0 0 0 0 0 0 0 0 0 0 0 0 0 0 0 0 0 0 0 0 0 0 0 0 0 0 0 0 0 0 0 0 0 0 0
0 0 0 0 0 0 0 0 0 0 0 0 0 0 0 0 0 0 0 0 0 0 0 0 0 0 0 -0 0 0 0 0 0 0 0 0 0 0 0 0 0 0 0 0 0 0 0 0 0
0 0 0 0 0 0 0 0 0 0 0 0 0 0 0 0 0 0 0 0 0 0 0 0 0 0 -0 -0 0 0 0 0 0 0 0 0 0 0 0 0 0 0 0 0 0 0 0 0 0
0 0 0 0 0 0 0 0 0 0 0 0 0 0 0 0 0 0 0 0 0 0 0 0 0 0 -0 -0 -0 0 0 0 0 0 0 0 0 0 0 0 0 0 0 0 0 0 0 0 0
0 0 0 0 0 0 0 0 0 0 0 0 0 0 0 0 0 0 0 0 0 0 0 0 0 0 0 -0 0 0 0 0 0 0 0 0 0 0 0 0 0 0 0 0 0 0 0 0 0
0 0 0 0 0 0 0 0 0 0 0 0 0 0 0 0 0 0 0 0 0 0 0 0 0 0 0 0 0 0 0 0 0 0 0 0 0 0 0 0 0 0 0 0 0 0 0 0 0
0 0 0 0 0 0 0 0 0 0 0 0 0 0 0 0 0 0 0 0 0 0 0 0 0 0 0 0 0 0 0 0 0 0 0 0 0 0 0 0 0 0 0 0 0 0 0 0 0
Wind_Speed
14 12 8 3 3 5 7 4 1 4 5 6 6 5 4 6 6 7 3 5 5 5 7 9 13 13 13 13 13 11 11 9 8 6 5 3 0 2 3 4 6 6 7 7 7 7 7 7 7
11 9 4 3 4 5 6 5 3 7 6 4 3 2 2 6 7 7 4 5 5 6 6 8 11 12 13 12 12 12 10 10 8 6 6 4 2 1 2 3 4 6 6 6 6 7 7 8 8
11 8 4 4 5 4 1 6 9 8 6 3 2 3 4 5 6 5 4 5 5 6 6 7 10 11 11 12 12 12 11 9 9 7 5 4 3 2 1 2 3 4 5 6 6 7 7 8 8
5 3 4 5 9 3 2 6 7 5 4 2 2 2 4 6 5 5 4 5 5 5 5 6 9 10 10 10 11 11 11 10 9 8 6 4 3 3 2 2 2 3 4 5 6 7 7 8 8
3 4 5 6 8 2 4 6 4 1 2 2 1 2 4 5 8 6 4 5 5 5 5 5 8 8 9 9 10 10 10 10 9 8 8 6 4 3 3 3 3 3 4 5 6 7 7 8 9
3 4 5 8 6 3 4 4 1 1 1 1 1 1 4 5 6 4 4 4 5 5 4 4 7 8 8 8 8 9 9 9 9 8 8 8 6 4 4 3 4 4 4 5 5 6 7 7 8
4 4 6 7 2 3 5 3 1 2 1 2 3 2 4 5 5 3 3 3 4 4 4 3 3 5 7 7 7 7 8 8 8 8 8 7 7 5 4 4 4 4 5 6 6 6 7 8 8
4 4 5 5 3 2 5 3 3 4 3 3 2 2 2 3 3 3 2 2 3 3 3 3 3 3 4 4 6 6 7 7 8 7 7 7 7 6 5 4 4 4 5 6 7 7 7 7 8
3 3 4 2 3 4 4 1 2 1 3 2 1 2 4 3 2 2 2 2 3 4 3 4 4 4 4 4 5 5 5 5 6 5 6 5 3 3 3 4 5 5 5 6 7 7 8 7 7
3 3 1 4 6 4 3 1 1 2 4 4 2 1 3 2 2 2 2 3 2 3 3 3 4 4 5 4 3 2 3 3 3 2 3 2 2 3 4 4 4 5 6 6 7 8 7 6 4
2 2 1 3 5 4 3 3 2 3 4 2 1 1 1 1 2 2 2 2 2 3 3 4 4 4 4 3 3 2 2 2 2 3 3 3 2 2 2 2 2 3 3 3 4 5 4 4 4
2 1 2 1 3 3 4 4 4 6 5 3 2 2 1 2 2 2 2 2 2 3 3 3 3 3 4 3 3 3 2 2 2 2 3 2 1 2 2 2 2 2 2 2 2 2 4 5 5
4 2 1 1 2 4 6 7 7 8 6 3 2 2 4 3 2 2 2 2 2 2 3 3 2 3 3 3 3 3 3 3 2 2 2 3 2 2 2 2 2 2 2 2 2 3 4 5 6
2 2 4 4 4 4 6 8 7 7 4 4 4 5 4 3 3 2 2 2 2 2 3 3 3 3 3 3 3 3 3 3 3 2 3 3 3 2 2 3 3 3 3 3 3 4 4 4 5
3 4 6 6 6 2 3 9 9 8 5 6 6 6 5 4 3 3 2 2 2 2 2 2 3 3 3 3 4 3 3 3 3 3 3 3 3 3 3 3 3 3 3 3 3 4 3 4 4
5 4 4 5 6 4 1 7 2 5 5 6 6 5 4 3 4 3 2 1 1 2 2 2 4 4 3 3 4 3 3 3 3 3 3 3 4 4 3 3 4 4 3 3 3 4 3 4 4
4 4 3 3 6 3 4 8 5 3 5 6 6 5 4 3 3 2 2 1 1 2 2 2 3 4 4 4 4 4 4 4 3 3 3 4 4 4 4 4 4 4 3 3 4 4 4 4 4
1 3 4 3 3 2 6 11 11 6 7 7 6 5 4 3 3 1 1 1 1 2 3 2 2 3 4 3 3 3 4 4 4 3 4 5 4 5 4 4 5 5 4 4 4 5 4 4 4
4 5 6 5 2 3 8 13 13 9 7 7 6 4 3 2 1 1 1 1 2 2 3 2 3 3 3 2 3 3 4 4 4 4 5 6 5 5 5 5 5 5 5 5 5 4 5 4 3
4 6 7 5 2 4 9 15 14 9 8 6 5 4 3 2 1 0 1 1 2 3 3 3 3 4 3 3 4 4 4 4 5 4 5 6 6 6 6 5 5 5 5 6 6 5 4 4 4
5 5 5 6 9 7 7 10 6 4 4 4 5 4 3 2 2 1 1 2 2 2 2 4 4 5 4 5 3 4 3 4 4 4 4 5 6 6 7 7 6 6 6 6 6 6 6 5 5
4 1 3 6 5 5 3 6 5 4 5 6 5 3 2 2 1 1 1 2 2 2 2 4 5 5 5 5 4 5 5 6 6 5 5 6 7 7 7 8 7 7 6 6 7 7 6 6 6
1 2 4 5 4 5 4 5 9 5 5 6 5 4 2 2 1 1 1 2 2 2 3 4 5 5 5 5 5 6 6 6 5 5 6 6 6 7 8 8 7 7 7 7 7 7 7 6 7
1 3 5 3 2 6 7 6 7 4 5 5 5 4 2 2 1 1 1 2 2 2 3 4 5 6 5 5 5 6 7 8 8 7 6 6 5 6 7 7 7 8 7 7 7 7 8 8 8
2 1 1 2 3 7 5 5 9 3 2 4 5 4 3 2 1 1 1 2 3 4 4 4 5 5 5 5 6 7 8 9 9 8 7 7 5 6 7 7 7 7 7 7 7 8 8 9 9
5 3 3 3 3 2 2 7 6 2 4 4 4 3 2 2 1 2 2 3 4 4 4 5 5 6 6 6 7 7 8 6 6 7 7 7 6 6 7 8 8 8 8 9 8 7 8 8 9
4 4 0 1 2 4 7 6 4 4 3 3 3 2 1 2 2 3 3 4 4 5 5 5 6 6 6 7 7 7 8 7 7 7 6 6 6 6 8 9 9 9 9 9 9 8 9 9 9
2 1 3 3 3 5 6 6 4 4 4 3 2 2 3 2 3 3 4 4 4 5 5 5 6 6 7 7 7 7 7 7 6 6 7 7 7 8 9 9 9 9 9 9 9 8 9 10 10
5 4 4 3 3 3 5 5 0 3 3 2 2 2 2 2 3 4 4 4 5 5 5 6 6 7 6 6 7 7 7 7 7 6 7 7 8 8 9 9 9 9 9 9 9 9 10 11 11
5 6 7 5 5 4 4 8 1 3 3 1 1 1 2 2 3 4 5 5 5 5 6 6 6 7 7 6 7 7 8 7 7 7 8 8 8 8 9 9 9 9 9 9 9 11 11 11 12
Wind_Direction
299 272 248 240 234 232 242 241 108 77 58 38 21 11 29 31 32 99 126 40 32 47 56 46 31 27 25 23 22 20 22 20 23 28 27 22 6 211 209 201 196 196 198 197 194 185 178 172 167
292 275 245 236 239 235 234 204 108 65 69 52 29 343 34 74 74 91 68 26 27 43 54 49 35 29 24 22 22 19 16 17 16 20 24 19 5 309 235 212 203 203 203 201 195 189 185 179 175
273 264 242 229 231 242 355 58 82 80 71 40 37 13 30 61 69 74 45 16 27 39 52 53 38 28 23 20 19 18 14 9 9 10 12 14 6 343 291 236 221 215 208 202 195 190 186 182 179
262 231 243 246 250 261 33 74 78 93 94 52 18 68 69 44 61 69 41 18 26 34 46 45 38 28 22 18 15 14 10 6 0 1 358 355 354 340 317 274 233 225 222 213 202 196 191 182 179
249 241 230 236 243 236 51 57 67 121 127 109 17 65 81 71 73 63 32 20 24 29 35 36 26 23 19 15 10 7 4 0 357 352 351 340 335 331 311 291 254 232 227 223 214 204 193 185 184
246 244 240 236 222 160 111 73 36 291 94 94 24 2 101 96 71 45 24 16 29 30 29 34 19 15 12 10 5 2 358 354 352 348 342 342 325 316 305 286 266 247 235 229 221 209 201 193 192
266 255 257 270 237 148 103 82 358 321 321 45 10 328 123 83 62 33 15 18 36 35 24 26 14 9 1 0 359 358 351 348 345 341 334 332 324 307 296 290 275 259 247 236 227 216 211 204 201
310 284 258 265 262 115 85 85 41 349 344 31 354 317 97 74 37 7 359 23 40 36 25 19 9 2 352 342 351 352 342 338 337 332 326 322 317 304 290 283 274 263 255 243 231 224 217 213 210
286 269 265 321 351 79 82 81 80 12 301 287 350 23 59 50 11 351 347 7 23 19 19 14 2 359 349 336 345 341 331 328 330 324 322 315 293 290 278 268 273 262 257 248 235 231 225 215 208
238 257 352 21 14 35 54 351 355 269 255 245 209 138 83 50 352 336 331 341 2 360 8 17 7 356 348 339 333 313 317 315 314 317 312 291 295 297 299 290 279 266 258 247 238 234 225 208 200
242 281 29 31 25 4 333 299 271 264 261 255 223 113 89 297 287 301 313 330 348 355 10 12 6 354 346 337 322 315 306 308 312 317 312 299 300 296 293 279 265 257 250 238 237 226 217 210 201
268 311 332 11 31 324 303 298 282 245 259 341 12 14 281 266 278 287 295 312 343 359 3 5 7 350 335 327 319 309 311 303 296 300 315 307 298 302 292 275 264 257 247 239 231 232 222 217 208
229 244 258 267 248 270 279 269 270 260 254 264 268 249 247 257 270 278 287 309 346 345 347 350 352 335 323 318 311 323 308 303 302 299 302 305 298 287 284 271 259 251 249 234 231 232 230 223 214
351 307 268 247 244 245 269 272 257 249 225 226 227 229 234 238 248 257 277 306 319 324 327 329 326 317 316 311 307 306 311 301 296 292 287 292 289 281 286 275 261 252 246 237 230 227 233 231 221
280 264 244 217 217 204 304 274 225 224 206 225 228 225 213 219 229 236 240 263 284 299 303 313 310 317 309 304 301 301 292 292 289 281 277 283 288 278 273 275 263 253 252 246 238 232 229 238 231
227 240 242 184 185 152 209 280 222 169 197 231 234 232 214 209 220 221 220 246 273 287 297 308 311 308 297 295 291 286 281 290 282 277 269 268 275 276 270 270 266 256 249 243 237 225 228 234 230
213 245 253 173 174 172 218 265 270 199 214 237 237 230 216 214 221 210 194 226 270 275 276 280 288 292 293 291 286 286 283 284 280 272 268 262 265 271 269 265 265 260 252 245 246 235 224 228 230
278 274 287 266 164 237 256 264 274 255 237 239 235 225 210 212 224 188 174 220 253 258 258 261 278 286 290 287 286 285 282 281 276 268 264 266 262 264 267 264 264 256 250 245 238 237 234 230 225
313 304 291 292 36 297 265 273 275 263 238 231 229 219 210 210 190 119 165 224 243 263 272 269 278 286 293 288 283 281 278 278 275 261 262 262 264 263 259 261 266 253 244 242 241 236 230 232 215
265 279 282 296 5 303 280 279 272 253 233 222 219 213 199 199 149 153 240 250 249 264 276 282 279 283 282 273 267 260 265 268 268 262 261 257 262 263 266 254 257 257 246 241 239 233 230 232 208
253 258 290 305 321 272 277 287 240 196 202 198 204 201 188 181 199 224 254 273 276 279 280 289 282 281 277 276 272 278 273 276 274 267 260 251 255 258 259 253 250 254 245 236 231 229 227 225 222
257 347 308 305 315 299 310 294 269 205 196 196 195 186 184 173 189 224 257 274 271 270 272 278 281 284 281 277 271 272 269 270 269 266 261 259 253 255 255 254 248 249 246 237 231 230 228 220 222
249 1 293 279 274 289 245 246 274 214 201 200 187 180 177 164 185 245 255 271 276 270 266 270 276 276 276 273 265 267 264 265 267 266 265 264 258 255 253 253 249 248 245 240 232 226 230 228 224
290 276 253 240 262 267 220 210 270 216 201 189 174 168 165 166 195 265 291 284 280 272 265 271 276 278 275 275 272 270 268 272 274 272 267 262 262 261 254 253 250 248 244 240 234 224 228 233 230
202 212 276 233 224 247 181 208 250 237 161 154 160 170 184 189 208 249 287 288 282 278 273 278 282 285 285 284 279 277 274 269 267 269 263 262 260 261 257 256 253 250 246 245 241 229 225 228 227
190 195 182 231 263 304 206 236 250 175 124 128 142 160 177 208 233 247 263 274 277 277 275 280 276 280 282 282 279 274 276 269 262 262 261 261 256 256 257 256 255 252 247 248 243 238 229 229 226
181 201 183 234 279 277 255 248 254 156 142 151 157 163 228 251 258 261 269 280 281 280 276 279 282 277 278 277 279 280 278 276 272 271 264 263 263 266 259 254 254 251 249 246 240 236 230 229 226
282 173 155 186 233 260 262 244 228 172 191 191 199 234 252 266 273 276 276 281 281 279 282 286 286 283 277 279 281 288 283 279 274 275 273 270 270 268 265 257 252 251 251 247 242 239 231 230 228
183 200 204 215 233 236 272 265 96 139 151 181 217 240 262 283 296 300 299 292 292 293 293 291 289 287 287 283 282 285 286 285 281 278 278 276 271 266 265 262 254 251 250 249 246 242 233 233 230
200 204 186 192 223 213 251 270 263 114 110 92 287 308 313 304 300 300 305 307 305 302 299 296 293 292 291 288 288 288 290 291 284 281 281 283 281 274 269 266 259 254 253 248 246 246 235 234 231